Latest Coastal Weather Observations for Cape Grim

IDT60701

Issued at 1:23 am EST Tuesday 24 July 2018 (issued every 10 minutes, with the page automatically refreshed every 10 minutes)

About coastal observations | Map of coastal stations | Coastal observations for TAS | Marine services | Other Formats
Station Details ID: 091331 Name: CAPE GRIM Lat: -40.68 Lon: 144.69 Height: 86.0 m
Data from the previous 72 hours. | See also: Recent months at Cape Grim
Date/Time
EST
Wind Sea
Height
m
Swell Vis
km
Cloud Weather Temp
°C
Press
hPa
Rain since
9am
mm
Dir  Spd
kts
Gust
kts
Height
m
Period
s
Dir
24/01:17am WNW 29 55 - - - - - Partly cloudy - 9.3 996.8 9.4
24/01:12am NW 28 55 - - - - - Partly cloudy - 9.2 996.6 9.0
24/01:11am NW 27 55 - - - - - Partly cloudy - 10.2 996.6 8.6
24/01:02am NNW 31 41 - - - - - Partly cloudy - 11.2 996.5 8.2
24/01:00am NNW 32 41 - - - - - Partly cloudy - 11.2 996.5 8.2
24/12:31am NNW 31 41 - - - - - Partly cloudy - 11.1 996.4 8.0
24/12:30am NNW 32 41 - - - - - Partly cloudy - 11.1 996.4 8.0
24/12:23am NNW 32 42 - - - - - Partly cloudy - 11.1 996.6 8.0
24/12:00am NNW 32 41 - - - - - Cloudy Recent precip. 10.8 996.8 8.0
 
Date/Time
EST
Wind Sea
Height
m
Swell Vis
km
Cloud Weather Temp
°C
Press
hPa
Rain since
9am
mm
Dir  Spd
kts
Gust
kts
Height
m
Period
s
Dir
23/11:52pm NNW 33 43 - - - - - Partly cloudy - 10.9 996.8 8.0
23/11:30pm NNW 35 44 - - - - - Partly cloudy - 10.9 996.9 8.0
23/11:09pm NNW 32 42 - - - - - Partly cloudy - 10.5 997.2 7.8
23/11:00pm NNW 33 42 - - - - - Partly cloudy - 10.3 997.2 7.8
23/10:31pm N 31 41 - - - - - Partly cloudy - 10.3 997.4 7.8
23/10:30pm N 32 41 - - - - - Partly cloudy - 10.3 997.4 7.8
23/10:21pm N 31 41 - - - - - Partly cloudy - 10.0 997.6 7.6
23/10:07pm N 35 46 - - - - - Partly cloudy - 9.7 997.9 7.4
23/10:00pm N 31 43 - - - - - Partly cloudy - 9.8 998.0 7.2
23/09:36pm N 34 44 - - - - - Partly cloudy - 9.9 998.5 6.2
23/09:30pm N 36 44 - - - - - Partly cloudy - 9.9 998.5 6.0
23/09:00pm N 35 46 - - - - - Cloudy Rain 9.6 998.7 5.0
23/08:44pm N 35 45 - - - - - Partly cloudy - 10.0 998.9 4.4
23/08:30pm N 33 41 - - - - - Partly cloudy - 10.1 999.4 3.8
23/08:00pm N 31 38 - - - - - Partly cloudy - 10.1 1000.0 3.0
23/07:30pm NNE 29 39 - - - - - Partly cloudy - 10.4 1000.4 1.4
23/07:28pm NNE 29 39 - - - - - Partly cloudy - 10.5 1000.4 1.2
23/07:00pm NNE 29 35 - - - - - Partly cloudy - 10.9 1000.4 1.0
23/06:30pm NNE 27 33 - - - - - Partly cloudy - 11.2 1000.9 1.0
23/06:00pm NNE 29 35 - - - - - Mostly cloudy - 11.1 1001.0 1.0
23/05:30pm NNE 30 37 - - - - - Partly cloudy - 11.1 1000.9 1.0
23/05:00pm NNE 26 34 - - - - - Cloudy - 10.7 1001.2 1.0
23/04:30pm NNE 26 31 - - - - - Partly cloudy - 10.5 1001.7 1.0
23/04:00pm NNE 24 32 - - - - - Partly cloudy - 9.6 1002.8 1.0
23/03:30pm NNE 24 32 - - - - - Partly cloudy - 10.3 1003.2 0.6
23/03:00pm NNE 21 25 - - - - - Cloudy Recent precip. 10.6 1003.8 0.2
23/02:30pm NNE 25 30 - - - - - Partly cloudy - 10.7 1004.0 0.2
23/02:00pm N 28 35 - - - - - Partly cloudy - 10.9 1004.1 0.0
23/01:30pm N 29 34 - - - - - Cloudy - 11.5 1004.8 0.0
23/01:00pm N 29 36 - - - - - Cloudy - 11.7 1005.5 0.0
23/12:30pm N 30 37 - - - - - Partly cloudy - 11.5 1006.3 0.0
23/12:00pm N 28 36 - - - - - Cloudy - 11.4 1007.2 0.0
23/11:30am N 31 38 - - - - - Cloudy - 11.4 1007.6 0.0
23/11:00am N 27 35 - - - - - Cloudy - 11.2 1008.5 0.0
23/10:30am NNE 26 32 - - - - - Cloudy - 10.8 1008.6 0.0
23/10:00am NNE 26 31 - - - - - Cloudy - 10.4 1008.9 0.0
23/09:30am NNE 24 30 - - - - - Cloudy - 10.2 1009.0 0.0
23/09:00am NNE 26 31 - - - - - Cloudy - 10.2 1009.2 0.4
23/08:30am NNE 22 30 - - - - - Partly cloudy - 9.9 1009.3 0.4
23/08:00am NNE 25 33 - - - - - Partly cloudy - 9.8 1009.4 0.4
23/07:30am NNE 25 32 - - - - - Partly cloudy - 9.7 1009.4 0.0
23/07:00am N 27 34 - - - - - Partly cloudy - 10.3 1009.7 0.0
23/06:30am N 26 34 - - - - - Partly cloudy - 10.6 1010.5 0.0
23/06:00am N 26 31 - - - - - Cloudy - 11.1 1010.9 0.0
23/05:30am N 25 32 - - - - - Partly cloudy - 10.9 1011.2 0.0
23/05:00am N 24 30 - - - - - - - 10.9 1011.7 0.0
23/04:30am N 25 31 - - - - - - - 10.8 1011.8 0.0
23/04:00am N 25 33 - - - - - - - 10.7 1012.1 0.0
23/03:30am N 23 29 - - - - - - - 10.5 1012.5 0.0
23/03:00am N 25 31 - - - - - Partly cloudy - 10.7 1012.5 0.0
23/02:30am N 26 32 - - - - - - - 10.8 1012.8 0.0
23/02:00am N 24 31 - - - - - - - 10.8 1013.2 0.0
23/01:30am NNE 23 30 - - - - - - - 10.4 1013.5 0.0
23/01:00am NNE 23 29 - - - - - - - 10.5 1013.8 0.0
23/12:30am NNE 24 28 - - - - - - - 10.6 1013.9 0.0
23/12:00am NNE 22 29 - - - - - Cloudy - 10.7 1014.1 0.0
 
Date/Time
EST
Wind Sea
Height
m
Swell Vis
km
Cloud Weather Temp
°C
Press
hPa
Rain since
9am
mm
Dir  Spd
kts
Gust
kts
Height
m
Period
s
Dir
22/11:30pm NNE 22 27 - - - - - - - 11.3 1014.3 0.0
22/11:00pm N 23 28 - - - - - - - 11.3 1014.5 0.0
22/10:30pm N 24 30 - - - - - - - 11.5 1014.6 0.0
22/10:00pm N 22 28 - - - - - - - 11.4 1014.9 0.0
22/09:30pm NNE 24 30 - - - - - Partly cloudy - 11.5 1015.0 0.0
22/09:00pm N 20 26 - - - - - Partly cloudy - 11.2 1015.4 0.0
22/08:30pm NNE 18 21 - - - - - Partly cloudy - 10.9 1015.5 0.0
22/08:00pm NNE 18 22 - - - - - Partly cloudy - 11.0 1015.6 0.0
22/07:30pm N 19 23 - - - - - - - 11.2 1015.6 0.0
22/07:00pm NNE 16 19 - - - - - - - 10.3 1015.7 0.0
22/06:30pm N 17 21 - - - - - - - 11.2 1015.6 0.0
22/06:00pm N 18 21 - - - - - - - 11.1 1015.5 0.0
22/05:30pm N 17 22 - - - - - - - 11.1 1015.5 0.0
22/05:00pm N 18 23 - - - - - - - 11.4 1015.5 0.0
22/04:30pm N 16 21 - - - - - - - 12.0 1015.7 0.0
22/04:00pm N 17 21 - - - - - - - 12.3 1015.8 0.0
22/03:30pm N 17 21 - - - - - - - 12.6 1015.9 0.0
22/03:00pm N 18 22 - - - - - - - 12.8 1016.0 0.0
22/02:30pm N 18 22 - - - - - - - 12.4 1016.0 0.0
22/02:00pm N 17 21 - - - - - - - 12.2 1016.3 0.0
22/01:30pm NNW 17 22 - - - - - - - 12.5 1016.8 0.0
22/01:00pm NNW 17 22 - - - - - - - 13.1 1017.2 0.0
22/12:30pm NNW 17 22 - - - - - Cloudy - 13.3 1017.6 0.0
22/12:00pm NNW 17 23 - - - - - Mostly cloudy - 13.0 1017.8 0.0
22/11:30am NNW 18 22 - - - - - Partly cloudy - 12.9 1018.3 0.0
22/11:00am NNW 18 22 - - - - - Partly cloudy - 12.4 1018.7 0.0
22/10:30am NNW 19 24 - - - - - Partly cloudy - 12.2 1018.8 0.0
22/10:00am NNW 19 23 - - - - - Partly cloudy - 12.4 1018.9 0.0
22/09:30am NNW 19 24 - - - - - Partly cloudy - 11.9 1019.0 0.0
22/09:00am NNW 19 25 - - - - - Cloudy Recent precip. 11.5 1019.0 1.6
22/08:30am NNW 20 25 - - - - - Partly cloudy - 11.5 1018.9 1.4
22/08:00am NNW 20 25 - - - - - Partly cloudy - 11.6 1018.9 1.4
22/07:30am NNW 20 25 - - - - - Partly cloudy - 11.4 1018.7 1.4
22/07:00am NNW 19 24 - - - - - Partly cloudy - 11.4 1018.6 1.4
22/06:30am NNW 20 24 - - - - - Partly cloudy - 11.4 1018.6 1.4
22/06:00am NNW 17 21 - - - - - Cloudy Rain 11.1 1018.5 1.4
22/05:30am NNW 12 16 - - - - - Partly cloudy - 10.8 1018.4 1.2
22/05:00am NNW 14 17 - - - - - Partly cloudy - 11.0 1018.5 1.0
22/04:30am NNW 18 21 - - - - - Partly cloudy - 10.9 1018.6 1.0
22/04:00am NNW 17 21 - - - - - Partly cloudy - 10.7 1018.6 1.0
22/03:41am NNW 15 23 - - - - - Partly cloudy - 10.7 1018.7 1.0
22/03:30am N 11 13 - - - - - Partly cloudy - 10.1 1018.8 0.8
22/03:00am NNW 11 14 - - - - - Cloudy - 10.1 1019.2 0.0
22/02:30am NNW 15 20 - - - - - Partly cloudy - 10.3 1019.5 0.0
22/02:00am NW 15 21 - - - - - Partly cloudy - 10.9 1019.4 0.0
22/01:30am NW 15 21 - - - - - Partly cloudy - 10.6 1019.4 0.0
22/01:00am NNE 9 13 - - - - - Partly cloudy - 9.8 1019.4 0.0
22/12:30am N 9 10 - - - - - Partly cloudy - 9.2 1019.7 0.0
22/12:00am N 9 11 - - - - - Cloudy - 9.4 1019.9 0.0
 
Date/Time
EST
Wind Sea
Height
m
Swell Vis
km
Cloud Weather Temp
°C
Press
hPa
Rain since
9am
mm
Dir  Spd
kts
Gust
kts
Height
m
Period
s
Dir
21/11:30pm NNW 9 13 - - - - - Partly cloudy - 9.7 1019.8 0.0
21/11:00pm N 10 15 - - - - - Partly cloudy - 9.1 1020.1 0.0
21/10:30pm NNE 8 9 - - - - - Partly cloudy - 8.9 1020.3 0.0
21/10:00pm N 8 10 - - - - - Partly cloudy - 8.8 1020.3 0.0
21/09:30pm N 7 8 - - - - - Partly cloudy - 9.0 1020.1 0.0
21/09:00pm N 10 12 - - - - - Cloudy - 9.3 1020.0 0.0
21/08:30pm NNW 11 14 - - - - - Partly cloudy - 9.6 1020.3 0.0
21/08:00pm ENE 5 7 - - - - - Cloudy - 8.8 1020.1 0.0
21/07:30pm E 4 6 - - - - - Cloudy - 9.0 1019.9 0.0
21/07:00pm W 6 9 - - - - - Partly cloudy - 10.3 1019.7 0.0
21/06:30pm WNW 9 11 - - - - - Cloudy - 10.5 1019.4 0.0
21/06:00pm WNW 8 11 - - - - - Cloudy - 10.3 1019.3 0.0
21/05:30pm WNW 10 12 - - - - - Partly cloudy - 10.3 1019.1 0.0
21/05:00pm W 11 15 - - - - - Partly cloudy - 10.5 1019.0 0.0
21/04:30pm W 11 15 - - - - - Partly cloudy - 10.4 1018.9 0.0
21/04:00pm W 9 14 - - - - - Partly cloudy - 10.6 1018.7 0.0
21/03:30pm WSW 5 9 - - - - - Partly cloudy - 11.0 1018.7 0.0
21/03:00pm WSW 7 11 - - - - - Cloudy - 10.7 1018.7 0.0
21/02:30pm W 8 11 - - - - - Partly cloudy - 10.8 1018.6 0.0
21/02:00pm W 8 12 - - - - - - - 10.6 1018.6 0.0
21/01:30pm WSW 8 13 - - - - - Partly cloudy - 10.8 1018.7 0.0
21/01:00pm SW 13 22 - - - - - Partly cloudy - 9.1 1019.0 0.0
21/12:30pm WSW 8 12 - - - - - Partly cloudy - 10.5 1019.0 0.0
21/12:00pm SSW 9 14 - - - - - Mostly cloudy - 9.8 1019.4 0.0
21/11:30am WSW 12 20 - - - - - Partly cloudy - 9.8 1019.5 0.0
21/11:00am WSW 10 16 - - - - - Partly cloudy - 10.0 1019.6 0.0
21/10:30am SW 14 20 - - - - - Partly cloudy - 10.2 1019.3 0.0
21/10:00am WSW 13 18 - - - - - - - 9.8 1019.3 0.0
21/09:30am WSW 11 22 - - - - - Cloudy - 9.7 1019.2 0.0
21/09:00am WSW 11 18 - - - - - Cloudy - 9.9 1018.9 3.8
21/08:30am WSW 11 19 - - - - - Partly cloudy - 9.7 1018.6 3.8
21/08:00am WSW 15 25 - - - - - Partly cloudy - 9.7 1018.2 3.8
21/07:49am WSW 15 25 - - - - - Partly cloudy - 9.9 1018.2 3.8
21/07:30am SW 19 28 - - - - - Partly cloudy - 9.7 1018.0 3.8
21/07:00am WSW 15 26 - - - - - Partly cloudy - 9.4 1017.6 3.8
21/06:30am WSW 12 20 - - - - - Partly cloudy - 9.9 1017.3 3.8
21/06:04am SW 16 26 - - - - - Partly cloudy - 9.9 1017.0 3.8
21/06:00am SW 18 26 - - - - - Mostly cloudy - 9.9 1016.8 3.8
21/05:53am WSW 16 26 - - - - - Partly cloudy - 10.0 1016.7 3.8
21/05:30am SW 19 27 - - - - - Partly cloudy - 9.7 1016.4 3.8
21/05:00am SW 17 26 - - - - - Partly cloudy - 10.0 1015.8 3.8
21/04:45am SW 17 27 - - - - - Partly cloudy - 9.9 1015.8 3.8
21/04:30am SW 19 23 - - - - - Partly cloudy - 9.6 1015.7 3.8
21/04:03am SW 21 31 - - - - - Partly cloudy - 10.2 1015.4 3.8
21/04:00am SW 21 25 - - - - - Partly cloudy - 10.1 1015.4 3.8
21/03:30am SW 20 27 - - - - - Partly cloudy - 9.4 1015.3 3.8
21/03:12am WSW 15 25 - - - - - Partly cloudy - 10.2 1015.2 3.8
21/03:00am WSW 16 25 - - - - - Partly cloudy - 10.3 1015.2 3.8
21/02:47am SW 16 26 - - - - - Partly cloudy - 10.2 1015.1 3.8
21/02:30am SW 14 23 - - - - - Partly cloudy - 9.9 1015.2 3.8
21/02:00am SW 20 25 - - - - - Partly cloudy - 10.0 1014.8 3.8
21/01:30am SW 23 30 - - - - - Partly cloudy - 10.0 1014.5 3.8

Other Formats:

Comma delimited format used in spreadsheet applications
http://www.bom.gov.au/fwo/IDT60701/IDT60701.95954.axf

JavaScript Object Notation format (JSON) in row-major order
http://www.bom.gov.au/fwo/IDT60701/IDT60701.95954.json